Index of /20260429/WXO-DD/model_rdps/10km/06/057
Name Last modified Size Description
Parent Directory -
20260429T06Z_MSC_RDPS_AbsoluteVorticity_IsbL-0250_RLatLon0.09_PT057H.grib2 2026-04-29 08:56 600K
20260429T06Z_MSC_RDPS_AbsoluteVorticity_IsbL-0500_RLatLon0.09_PT057H.grib2 2026-04-29 08:56 558K
20260429T06Z_MSC_RDPS_AbsoluteVorticity_IsbL-0700_RLatLon0.09_PT057H.grib2 2026-04-29 08:56 611K
20260429T06Z_MSC_RDPS_AbsoluteVorticity_IsbL-0850_RLatLon0.09_PT057H.grib2 2026-04-29 08:56 771K
20260429T06Z_MSC_RDPS_AirTemp_AGL-120m_RLatLon0.09_PT057H.grib2 2026-04-29 08:56 382K
20260429T06Z_MSC_RDPS_AirTemp_AGL-2m_RLatLon0.09_PT057H.grib2 2026-04-29 08:56 628K
20260429T06Z_MSC_RDPS_AirTemp_AGL-40m_RLatLon0.09_PT057H.grib2 2026-04-29 08:56 394K
20260429T06Z_MSC_RDPS_AirTemp_AGL-80m_RLatLon0.09_PT057H.grib2 2026-04-29 08:56 388K
20260429T06Z_MSC_RDPS_AirTemp_IsbL-0001_RLatLon0.09_PT057H.grib2 2026-04-29 08:56 317K
20260429T06Z_MSC_RDPS_AirTemp_IsbL-0005_RLatLon0.09_PT057H.grib2 2026-04-29 08:56 288K
20260429T06Z_MSC_RDPS_AirTemp_IsbL-0010_RLatLon0.09_PT057H.grib2 2026-04-29 08:56 389K
20260429T06Z_MSC_RDPS_AirTemp_IsbL-0020_RLatLon0.09_PT057H.grib2 2026-04-29 08:56 412K
20260429T06Z_MSC_RDPS_AirTemp_IsbL-0030_RLatLon0.09_PT057H.grib2 2026-04-29 08:56 336K
20260429T06Z_MSC_RDPS_AirTemp_IsbL-0050_RLatLon0.09_PT057H.grib2 2026-04-29 08:56 312K
20260429T06Z_MSC_RDPS_AirTemp_IsbL-0100_RLatLon0.09_PT057H.grib2 2026-04-29 08:56 420K
20260429T06Z_MSC_RDPS_AirTemp_IsbL-0150_RLatLon0.09_PT057H.grib2 2026-04-29 08:56 416K
20260429T06Z_MSC_RDPS_AirTemp_IsbL-0175_RLatLon0.09_PT057H.grib2 2026-04-29 08:56 410K
20260429T06Z_MSC_RDPS_AirTemp_IsbL-0200_RLatLon0.09_PT057H.grib2 2026-04-29 08:56 414K
20260429T06Z_MSC_RDPS_AirTemp_IsbL-0225_RLatLon0.09_PT057H.grib2 2026-04-29 08:56 414K
20260429T06Z_MSC_RDPS_AirTemp_IsbL-0250_RLatLon0.09_PT057H.grib2 2026-04-29 08:56 417K
20260429T06Z_MSC_RDPS_AirTemp_IsbL-0275_RLatLon0.09_PT057H.grib2 2026-04-29 08:56 396K
20260429T06Z_MSC_RDPS_AirTemp_IsbL-0300_RLatLon0.09_PT057H.grib2 2026-04-29 08:56 403K
20260429T06Z_MSC_RDPS_AirTemp_IsbL-0350_RLatLon0.09_PT057H.grib2 2026-04-29 08:56 417K
20260429T06Z_MSC_RDPS_AirTemp_IsbL-0400_RLatLon0.09_PT057H.grib2 2026-04-29 08:56 419K
20260429T06Z_MSC_RDPS_AirTemp_IsbL-0450_RLatLon0.09_PT057H.grib2 2026-04-29 08:56 426K
20260429T06Z_MSC_RDPS_AirTemp_IsbL-0500_RLatLon0.09_PT057H.grib2 2026-04-29 08:56 401K
20260429T06Z_MSC_RDPS_AirTemp_IsbL-0550_RLatLon0.09_PT057H.grib2 2026-04-29 08:56 419K
20260429T06Z_MSC_RDPS_AirTemp_IsbL-0600_RLatLon0.09_PT057H.grib2 2026-04-29 08:56 438K
20260429T06Z_MSC_RDPS_AirTemp_IsbL-0650_RLatLon0.09_PT057H.grib2 2026-04-29 08:56 351K
20260429T06Z_MSC_RDPS_AirTemp_IsbL-0700_RLatLon0.09_PT057H.grib2 2026-04-29 08:56 474K
20260429T06Z_MSC_RDPS_AirTemp_IsbL-0750_RLatLon0.09_PT057H.grib2 2026-04-29 08:56 400K
20260429T06Z_MSC_RDPS_AirTemp_IsbL-0800_RLatLon0.09_PT057H.grib2 2026-04-29 08:56 447K
20260429T06Z_MSC_RDPS_AirTemp_IsbL-0850_RLatLon0.09_PT057H.grib2 2026-04-29 08:56 499K
20260429T06Z_MSC_RDPS_AirTemp_IsbL-0875_RLatLon0.09_PT057H.grib2 2026-04-29 08:56 520K
20260429T06Z_MSC_RDPS_AirTemp_IsbL-0900_RLatLon0.09_PT057H.grib2 2026-04-29 08:56 530K
20260429T06Z_MSC_RDPS_AirTemp_IsbL-0925_RLatLon0.09_PT057H.grib2 2026-04-29 08:56 529K
20260429T06Z_MSC_RDPS_AirTemp_IsbL-0950_RLatLon0.09_PT057H.grib2 2026-04-29 08:56 533K
20260429T06Z_MSC_RDPS_AirTemp_IsbL-0970_RLatLon0.09_PT057H.grib2 2026-04-29 08:56 527K
20260429T06Z_MSC_RDPS_AirTemp_IsbL-0985_RLatLon0.09_PT057H.grib2 2026-04-29 08:56 517K
20260429T06Z_MSC_RDPS_AirTemp_IsbL-1000_RLatLon0.09_PT057H.grib2 2026-04-29 08:56 502K
20260429T06Z_MSC_RDPS_AirTemp_IsbL-1015_RLatLon0.09_PT057H.grib2 2026-04-29 08:56 499K
20260429T06Z_MSC_RDPS_Albedo_Sfc_RLatLon0.09_PT057H.grib2 2026-04-29 08:56 160K
20260429T06Z_MSC_RDPS_CAPE_Sfc_RLatLon0.09_PT057H.grib2 2026-04-29 08:56 1.7M
20260429T06Z_MSC_RDPS_CIN_Sfc_RLatLon0.09_PT057H.grib2 2026-04-29 08:56 1.1M
20260429T06Z_MSC_RDPS_CloudWater_EAtm_RLatLon0.09_PT057H.grib2 2026-04-29 08:56 217K
20260429T06Z_MSC_RDPS_ConvectivePrecip-Accum_Sfc_RLatLon0.09_PT057H.grib2 2026-04-29 08:56 1.1M
20260429T06Z_MSC_RDPS_DewPointDepression_AGL-2m_RLatLon0.09_PT057H.grib2 2026-04-29 08:56 413K
20260429T06Z_MSC_RDPS_DewPointDepression_IsbL-0001_RLatLon0.09_PT057H.grib2 2026-04-29 08:56 193
20260429T06Z_MSC_RDPS_DewPointDepression_IsbL-0005_RLatLon0.09_PT057H.grib2 2026-04-29 08:56 193
20260429T06Z_MSC_RDPS_DewPointDepression_IsbL-0010_RLatLon0.09_PT057H.grib2 2026-04-29 08:56 193
20260429T06Z_MSC_RDPS_DewPointDepression_IsbL-0020_RLatLon0.09_PT057H.grib2 2026-04-29 08:56 193
20260429T06Z_MSC_RDPS_DewPointDepression_IsbL-0030_RLatLon0.09_PT057H.grib2 2026-04-29 08:56 193
20260429T06Z_MSC_RDPS_DewPointDepression_IsbL-0050_RLatLon0.09_PT057H.grib2 2026-04-29 08:56 108K
20260429T06Z_MSC_RDPS_DewPointDepression_IsbL-0100_RLatLon0.09_PT057H.grib2 2026-04-29 08:56 125K
20260429T06Z_MSC_RDPS_DewPointDepression_IsbL-0150_RLatLon0.09_PT057H.grib2 2026-04-29 08:56 149K
20260429T06Z_MSC_RDPS_DewPointDepression_IsbL-0175_RLatLon0.09_PT057H.grib2 2026-04-29 08:56 180K
20260429T06Z_MSC_RDPS_DewPointDepression_IsbL-0200_RLatLon0.09_PT057H.grib2 2026-04-29 08:56 215K
20260429T06Z_MSC_RDPS_DewPointDepression_IsbL-0225_RLatLon0.09_PT057H.grib2 2026-04-29 08:56 255K
20260429T06Z_MSC_RDPS_DewPointDepression_IsbL-0250_RLatLon0.09_PT057H.grib2 2026-04-29 08:56 293K
20260429T06Z_MSC_RDPS_DewPointDepression_IsbL-0275_RLatLon0.09_PT057H.grib2 2026-04-29 08:56 301K
20260429T06Z_MSC_RDPS_DewPointDepression_IsbL-0300_RLatLon0.09_PT057H.grib2 2026-04-29 08:56 322K
20260429T06Z_MSC_RDPS_DewPointDepression_IsbL-0350_RLatLon0.09_PT057H.grib2 2026-04-29 08:56 327K
20260429T06Z_MSC_RDPS_DewPointDepression_IsbL-0400_RLatLon0.09_PT057H.grib2 2026-04-29 08:56 338K
20260429T06Z_MSC_RDPS_DewPointDepression_IsbL-0450_RLatLon0.09_PT057H.grib2 2026-04-29 08:56 348K
20260429T06Z_MSC_RDPS_DewPointDepression_IsbL-0500_RLatLon0.09_PT057H.grib2 2026-04-29 08:56 352K
20260429T06Z_MSC_RDPS_DewPointDepression_IsbL-0550_RLatLon0.09_PT057H.grib2 2026-04-29 08:56 361K
20260429T06Z_MSC_RDPS_DewPointDepression_IsbL-0600_RLatLon0.09_PT057H.grib2 2026-04-29 08:56 372K
20260429T06Z_MSC_RDPS_DewPointDepression_IsbL-0650_RLatLon0.09_PT057H.grib2 2026-04-29 08:56 374K
20260429T06Z_MSC_RDPS_DewPointDepression_IsbL-0700_RLatLon0.09_PT057H.grib2 2026-04-29 08:56 380K
20260429T06Z_MSC_RDPS_DewPointDepression_IsbL-0750_RLatLon0.09_PT057H.grib2 2026-04-29 08:56 399K
20260429T06Z_MSC_RDPS_DewPointDepression_IsbL-0800_RLatLon0.09_PT057H.grib2 2026-04-29 08:56 436K
20260429T06Z_MSC_RDPS_DewPointDepression_IsbL-0850_RLatLon0.09_PT057H.grib2 2026-04-29 08:56 469K
20260429T06Z_MSC_RDPS_DewPointDepression_IsbL-0875_RLatLon0.09_PT057H.grib2 2026-04-29 08:56 472K
20260429T06Z_MSC_RDPS_DewPointDepression_IsbL-0900_RLatLon0.09_PT057H.grib2 2026-04-29 08:56 463K
20260429T06Z_MSC_RDPS_DewPointDepression_IsbL-0925_RLatLon0.09_PT057H.grib2 2026-04-29 08:56 451K
20260429T06Z_MSC_RDPS_DewPointDepression_IsbL-0950_RLatLon0.09_PT057H.grib2 2026-04-29 08:56 448K
20260429T06Z_MSC_RDPS_DewPointDepression_IsbL-0970_RLatLon0.09_PT057H.grib2 2026-04-29 08:56 442K
20260429T06Z_MSC_RDPS_DewPointDepression_IsbL-0985_RLatLon0.09_PT057H.grib2 2026-04-29 08:56 438K
20260429T06Z_MSC_RDPS_DewPointDepression_IsbL-1000_RLatLon0.09_PT057H.grib2 2026-04-29 08:56 432K
20260429T06Z_MSC_RDPS_DewPointDepression_IsbL-1015_RLatLon0.09_PT057H.grib2 2026-04-29 08:56 424K
20260429T06Z_MSC_RDPS_DewPoint_AGL-2m_RLatLon0.09_PT057H.grib2 2026-04-29 08:56 400K
20260429T06Z_MSC_RDPS_DownwardLongwaveRadiationFlux-Accum_Sfc_RLatLon0.09_PT057H.grib2 2026-04-29 08:56 397K
20260429T06Z_MSC_RDPS_DownwardShortwaveRadiationFlux-Accum_NTAtm_RLatLon0.09_PT057H.grib2 2026-04-29 08:56 96K
20260429T06Z_MSC_RDPS_DownwardShortwaveRadiationFlux-Accum_Sfc_RLatLon0.09_PT057H.grib2 2026-04-29 08:56 575K
20260429T06Z_MSC_RDPS_FreezingRain-Accum1h_Sfc_RLatLon0.09_PT057H.grib2 2026-04-29 08:56 26K
20260429T06Z_MSC_RDPS_FreezingRain-Accum3h_Sfc_RLatLon0.09_PT057H.grib2 2026-04-29 08:56 45K
20260429T06Z_MSC_RDPS_FreezingRain-Accum_Sfc_RLatLon0.09_PT057H.grib2 2026-04-29 08:56 189K
20260429T06Z_MSC_RDPS_GeopotentialHeight_IsbL-0001_RLatLon0.09_PT057H.grib2 2026-04-29 08:56 317K
20260429T06Z_MSC_RDPS_GeopotentialHeight_IsbL-0005_RLatLon0.09_PT057H.grib2 2026-04-29 08:56 302K
20260429T06Z_MSC_RDPS_GeopotentialHeight_IsbL-0010_RLatLon0.09_PT057H.grib2 2026-04-29 08:56 303K
20260429T06Z_MSC_RDPS_GeopotentialHeight_IsbL-0020_RLatLon0.09_PT057H.grib2 2026-04-29 08:56 302K
20260429T06Z_MSC_RDPS_GeopotentialHeight_IsbL-0030_RLatLon0.09_PT057H.grib2 2026-04-29 08:56 304K
20260429T06Z_MSC_RDPS_GeopotentialHeight_IsbL-0050_RLatLon0.09_PT057H.grib2 2026-04-29 08:56 306K
20260429T06Z_MSC_RDPS_GeopotentialHeight_IsbL-0100_RLatLon0.09_PT057H.grib2 2026-04-29 08:56 283K
20260429T06Z_MSC_RDPS_GeopotentialHeight_IsbL-0150_RLatLon0.09_PT057H.grib2 2026-04-29 08:56 226K
20260429T06Z_MSC_RDPS_GeopotentialHeight_IsbL-0175_RLatLon0.09_PT057H.grib2 2026-04-29 08:56 229K
20260429T06Z_MSC_RDPS_GeopotentialHeight_IsbL-0200_RLatLon0.09_PT057H.grib2 2026-04-29 08:56 263K
20260429T06Z_MSC_RDPS_GeopotentialHeight_IsbL-0225_RLatLon0.09_PT057H.grib2 2026-04-29 08:56 264K
20260429T06Z_MSC_RDPS_GeopotentialHeight_IsbL-0250_RLatLon0.09_PT057H.grib2 2026-04-29 08:56 265K
20260429T06Z_MSC_RDPS_GeopotentialHeight_IsbL-0275_RLatLon0.09_PT057H.grib2 2026-04-29 08:56 264K
20260429T06Z_MSC_RDPS_GeopotentialHeight_IsbL-0300_RLatLon0.09_PT057H.grib2 2026-04-29 08:56 233K
20260429T06Z_MSC_RDPS_GeopotentialHeight_IsbL-0350_RLatLon0.09_PT057H.grib2 2026-04-29 08:56 229K
20260429T06Z_MSC_RDPS_GeopotentialHeight_IsbL-0400_RLatLon0.09_PT057H.grib2 2026-04-29 08:56 227K
20260429T06Z_MSC_RDPS_GeopotentialHeight_IsbL-0450_RLatLon0.09_PT057H.grib2 2026-04-29 08:56 294K
20260429T06Z_MSC_RDPS_GeopotentialHeight_IsbL-0500_RLatLon0.09_PT057H.grib2 2026-04-29 08:56 289K
20260429T06Z_MSC_RDPS_GeopotentialHeight_IsbL-0550_RLatLon0.09_PT057H.grib2 2026-04-29 08:56 286K
20260429T06Z_MSC_RDPS_GeopotentialHeight_IsbL-0600_RLatLon0.09_PT057H.grib2 2026-04-29 08:56 283K
20260429T06Z_MSC_RDPS_GeopotentialHeight_IsbL-0650_RLatLon0.09_PT057H.grib2 2026-04-29 08:56 252K
20260429T06Z_MSC_RDPS_GeopotentialHeight_IsbL-0700_RLatLon0.09_PT057H.grib2 2026-04-29 08:56 251K
20260429T06Z_MSC_RDPS_GeopotentialHeight_IsbL-0750_RLatLon0.09_PT057H.grib2 2026-04-29 08:56 334K
20260429T06Z_MSC_RDPS_GeopotentialHeight_IsbL-0800_RLatLon0.09_PT057H.grib2 2026-04-29 08:56 343K
20260429T06Z_MSC_RDPS_GeopotentialHeight_IsbL-0850_RLatLon0.09_PT057H.grib2 2026-04-29 08:56 354K
20260429T06Z_MSC_RDPS_GeopotentialHeight_IsbL-0875_RLatLon0.09_PT057H.grib2 2026-04-29 08:56 355K
20260429T06Z_MSC_RDPS_GeopotentialHeight_IsbL-0900_RLatLon0.09_PT057H.grib2 2026-04-29 08:56 362K
20260429T06Z_MSC_RDPS_GeopotentialHeight_IsbL-0925_RLatLon0.09_PT057H.grib2 2026-04-29 08:56 363K
20260429T06Z_MSC_RDPS_GeopotentialHeight_IsbL-0950_RLatLon0.09_PT057H.grib2 2026-04-29 08:56 368K
20260429T06Z_MSC_RDPS_GeopotentialHeight_IsbL-0970_RLatLon0.09_PT057H.grib2 2026-04-29 08:56 374K
20260429T06Z_MSC_RDPS_GeopotentialHeight_IsbL-0985_RLatLon0.09_PT057H.grib2 2026-04-29 08:56 384K
20260429T06Z_MSC_RDPS_GeopotentialHeight_IsbL-1000_RLatLon0.09_PT057H.grib2 2026-04-29 08:56 397K
20260429T06Z_MSC_RDPS_GeopotentialHeight_IsbL-1015_RLatLon0.09_PT057H.grib2 2026-04-29 08:56 413K
20260429T06Z_MSC_RDPS_Humidex_Sfc_RLatLon0.09_PT057H.grib2 2026-04-29 08:56 2.4M
20260429T06Z_MSC_RDPS_IcePellets-Accum1h_Sfc_RLatLon0.09_PT057H.grib2 2026-04-29 08:56 6.5K
20260429T06Z_MSC_RDPS_IcePellets-Accum3h_Sfc_RLatLon0.09_PT057H.grib2 2026-04-29 08:56 9.7K
20260429T06Z_MSC_RDPS_IcePellets-Accum_Sfc_RLatLon0.09_PT057H.grib2 2026-04-29 08:56 30K
20260429T06Z_MSC_RDPS_KIndex_Sfc_RLatLon0.09_PT057H.grib2 2026-04-29 08:56 2.5M
20260429T06Z_MSC_RDPS_LatentHeatNetFlux_Sfc_RLatLon0.09_PT057H.grib2 2026-04-29 08:56 376K
20260429T06Z_MSC_RDPS_LiftedIndex-MU-VT_IsbL-0500_RLatLon0.09_PT057H.grib2 2026-04-29 08:56 2.4M
20260429T06Z_MSC_RDPS_NetLongwaveRadiationFlux-Accum_Sfc_RLatLon0.09_PT057H.grib2 2026-04-29 08:56 561K
20260429T06Z_MSC_RDPS_NetShortwaveRadiationFlux-Accum_Sfc_RLatLon0.09_PT057H.grib2 2026-04-29 08:56 572K
20260429T06Z_MSC_RDPS_PlanetaryBoundaryLayerHeight_Sfc_RLatLon0.09_PT057H.grib2 2026-04-29 08:56 1.2M
20260429T06Z_MSC_RDPS_Precip-Accum1h_Sfc_RLatLon0.09_PT057H.grib2 2026-04-29 08:56 1.2M
20260429T06Z_MSC_RDPS_Precip-Accum3h_Sfc_RLatLon0.09_PT057H.grib2 2026-04-29 08:56 1.3M
20260429T06Z_MSC_RDPS_Precip-Accum_Sfc_RLatLon0.09_PT057H.grib2 2026-04-29 08:56 2.1M
20260429T06Z_MSC_RDPS_PrecipRate_Sfc_RLatLon0.09_PT057H.grib2 2026-04-29 08:56 181K
20260429T06Z_MSC_RDPS_PrecipType-Instant_Sfc_RLatLon0.09_PT057H.grib2 2026-04-29 08:56 546K
20260429T06Z_MSC_RDPS_Pressure-Trend3h_Sfc_RLatLon0.09_PT057H.grib2 2026-04-29 08:56 1.2M
20260429T06Z_MSC_RDPS_Pressure_MSL_RLatLon0.09_PT057H.grib2 2026-04-29 08:56 326K
20260429T06Z_MSC_RDPS_Pressure_PVU-1.5_RLatLon0.09_PT057H.grib2 2026-04-29 08:56 2.5M
20260429T06Z_MSC_RDPS_Pressure_PVU-1_RLatLon0.09_PT057H.grib2 2026-04-29 08:56 2.4M
20260429T06Z_MSC_RDPS_Pressure_PVU-2_RLatLon0.09_PT057H.grib2 2026-04-29 08:56 2.4M
20260429T06Z_MSC_RDPS_Pressure_Sfc_RLatLon0.09_PT057H.grib2 2026-04-29 08:56 499K
20260429T06Z_MSC_RDPS_RadiativeTemp_Sfc_RLatLon0.09_PT057H.grib2 2026-04-29 08:56 320K
20260429T06Z_MSC_RDPS_Rain-Accum1h_Sfc_RLatLon0.09_PT057H.grib2 2026-04-29 08:56 573K
20260429T06Z_MSC_RDPS_Rain-Accum3h_Sfc_RLatLon0.09_PT057H.grib2 2026-04-29 08:56 659K
20260429T06Z_MSC_RDPS_Rain-Accum_Sfc_RLatLon0.09_PT057H.grib2 2026-04-29 08:56 1.6M
20260429T06Z_MSC_RDPS_RelativeHumidity_AGL-2m_RLatLon0.09_PT057H.grib2 2026-04-29 08:56 1.0M
20260429T06Z_MSC_RDPS_RelativeHumidity_IsbL-0010_RLatLon0.09_PT057H.grib2 2026-04-29 08:56 634K
20260429T06Z_MSC_RDPS_RelativeHumidity_IsbL-0020_RLatLon0.09_PT057H.grib2 2026-04-29 08:56 678K
20260429T06Z_MSC_RDPS_RelativeHumidity_IsbL-0030_RLatLon0.09_PT057H.grib2 2026-04-29 08:56 606K
20260429T06Z_MSC_RDPS_RelativeHumidity_IsbL-0050_RLatLon0.09_PT057H.grib2 2026-04-29 08:56 312K
20260429T06Z_MSC_RDPS_RelativeHumidity_IsbL-0100_RLatLon0.09_PT057H.grib2 2026-04-29 08:56 275K
20260429T06Z_MSC_RDPS_RelativeHumidity_IsbL-0150_RLatLon0.09_PT057H.grib2 2026-04-29 08:56 397K
20260429T06Z_MSC_RDPS_RelativeHumidity_IsbL-0175_RLatLon0.09_PT057H.grib2 2026-04-29 08:56 465K
20260429T06Z_MSC_RDPS_RelativeHumidity_IsbL-0200_RLatLon0.09_PT057H.grib2 2026-04-29 08:56 549K
20260429T06Z_MSC_RDPS_RelativeHumidity_IsbL-0225_RLatLon0.09_PT057H.grib2 2026-04-29 08:56 618K
20260429T06Z_MSC_RDPS_RelativeHumidity_IsbL-0250_RLatLon0.09_PT057H.grib2 2026-04-29 08:56 682K
20260429T06Z_MSC_RDPS_RelativeHumidity_IsbL-0275_RLatLon0.09_PT057H.grib2 2026-04-29 08:56 707K
20260429T06Z_MSC_RDPS_RelativeHumidity_IsbL-0300_RLatLon0.09_PT057H.grib2 2026-04-29 08:56 752K
20260429T06Z_MSC_RDPS_RelativeHumidity_IsbL-0350_RLatLon0.09_PT057H.grib2 2026-04-29 08:56 772K
20260429T06Z_MSC_RDPS_RelativeHumidity_IsbL-0400_RLatLon0.09_PT057H.grib2 2026-04-29 08:56 785K
20260429T06Z_MSC_RDPS_RelativeHumidity_IsbL-0450_RLatLon0.09_PT057H.grib2 2026-04-29 08:56 795K
20260429T06Z_MSC_RDPS_RelativeHumidity_IsbL-0500_RLatLon0.09_PT057H.grib2 2026-04-29 08:56 800K
20260429T06Z_MSC_RDPS_RelativeHumidity_IsbL-0550_RLatLon0.09_PT057H.grib2 2026-04-29 08:56 816K
20260429T06Z_MSC_RDPS_RelativeHumidity_IsbL-0600_RLatLon0.09_PT057H.grib2 2026-04-29 08:56 837K
20260429T06Z_MSC_RDPS_RelativeHumidity_IsbL-0650_RLatLon0.09_PT057H.grib2 2026-04-29 08:56 847K
20260429T06Z_MSC_RDPS_RelativeHumidity_IsbL-0700_RLatLon0.09_PT057H.grib2 2026-04-29 08:56 866K
20260429T06Z_MSC_RDPS_RelativeHumidity_IsbL-0750_RLatLon0.09_PT057H.grib2 2026-04-29 08:56 907K
20260429T06Z_MSC_RDPS_RelativeHumidity_IsbL-0800_RLatLon0.09_PT057H.grib2 2026-04-29 08:56 1.0M
20260429T06Z_MSC_RDPS_RelativeHumidity_IsbL-0850_RLatLon0.09_PT057H.grib2 2026-04-29 08:56 1.0M
20260429T06Z_MSC_RDPS_RelativeHumidity_IsbL-0875_RLatLon0.09_PT057H.grib2 2026-04-29 08:56 1.1M
20260429T06Z_MSC_RDPS_RelativeHumidity_IsbL-0900_RLatLon0.09_PT057H.grib2 2026-04-29 08:56 1.1M
20260429T06Z_MSC_RDPS_RelativeHumidity_IsbL-0925_RLatLon0.09_PT057H.grib2 2026-04-29 08:56 1.1M
20260429T06Z_MSC_RDPS_RelativeHumidity_IsbL-0950_RLatLon0.09_PT057H.grib2 2026-04-29 08:56 1.1M
20260429T06Z_MSC_RDPS_RelativeHumidity_IsbL-0970_RLatLon0.09_PT057H.grib2 2026-04-29 08:56 1.1M
20260429T06Z_MSC_RDPS_RelativeHumidity_IsbL-0985_RLatLon0.09_PT057H.grib2 2026-04-29 08:56 1.0M
20260429T06Z_MSC_RDPS_RelativeHumidity_IsbL-1000_RLatLon0.09_PT057H.grib2 2026-04-29 08:56 1.0M
20260429T06Z_MSC_RDPS_RelativeHumidity_IsbL-1015_RLatLon0.09_PT057H.grib2 2026-04-29 08:56 1.0M
20260429T06Z_MSC_RDPS_Runoff-Accum_Sfc_RLatLon0.09_PT057H.grib2 2026-04-29 08:56 55K
20260429T06Z_MSC_RDPS_SWEATIndex_Sfc_RLatLon0.09_PT057H.grib2 2026-04-29 08:56 2.4M
20260429T06Z_MSC_RDPS_SeeingIndex_EAtm_RLatLon0.09_PT057H.grib2 2026-04-29 08:56 1.0M
20260429T06Z_MSC_RDPS_SensibleHeatNetFlux_Sfc_RLatLon0.09_PT057H.grib2 2026-04-29 08:56 352K
20260429T06Z_MSC_RDPS_ShowalterIndex_IsbL-0500_RLatLon0.09_PT057H.grib2 2026-04-29 08:56 2.6M
20260429T06Z_MSC_RDPS_SkyTransparencyIndex_EAtm_RLatLon0.09_PT057H.grib2 2026-04-29 08:56 714K
20260429T06Z_MSC_RDPS_Snow-Accum1h_Sfc_RLatLon0.09_PT057H.grib2 2026-04-29 08:56 462K
20260429T06Z_MSC_RDPS_Snow-Accum3h_Sfc_RLatLon0.09_PT057H.grib2 2026-04-29 08:56 460K
20260429T06Z_MSC_RDPS_Snow-Accum_Sfc_RLatLon0.09_PT057H.grib2 2026-04-29 08:56 756K
20260429T06Z_MSC_RDPS_SnowDensity_Sfc_RLatLon0.09_PT057H.grib2 2026-04-29 08:56 180K
20260429T06Z_MSC_RDPS_SnowDepth_Sfc_RLatLon0.09_PT057H.grib2 2026-04-29 08:56 678K
20260429T06Z_MSC_RDPS_SoilTemp_DBS-0to10cm_RLatLon0.09_PT057H.grib2 2026-04-29 08:56 239K
20260429T06Z_MSC_RDPS_SoilTemp_Sfc_RLatLon0.09_PT057H.grib2 2026-04-29 08:56 289K
20260429T06Z_MSC_RDPS_SoilVolumetricIceContent_Sfc_RLatLon0.09_PT057H.grib2 2026-04-29 08:56 163K
20260429T06Z_MSC_RDPS_SoilVolumetricWaterContent_DBS-0to10cm_RLatLon0.09_PT057H.grib2 2026-04-29 08:56 269K
20260429T06Z_MSC_RDPS_SoilVolumetricWaterContent_DBS-0to1cm_RLatLon0.09_PT057H.grib2 2026-04-29 08:56 339K
20260429T06Z_MSC_RDPS_SpecificHumidity_AGL-120m_RLatLon0.09_PT057H.grib2 2026-04-29 08:56 495K
20260429T06Z_MSC_RDPS_SpecificHumidity_AGL-2m_RLatLon0.09_PT057H.grib2 2026-04-29 08:56 664K
20260429T06Z_MSC_RDPS_SpecificHumidity_AGL-40m_RLatLon0.09_PT057H.grib2 2026-04-29 08:56 500K
20260429T06Z_MSC_RDPS_SpecificHumidity_AGL-80m_RLatLon0.09_PT057H.grib2 2026-04-29 08:56 497K
20260429T06Z_MSC_RDPS_SpecificHumidity_IsbL-0001_RLatLon0.09_PT057H.grib2 2026-04-29 08:56 367K
20260429T06Z_MSC_RDPS_SpecificHumidity_IsbL-0005_RLatLon0.09_PT057H.grib2 2026-04-29 08:56 360K
20260429T06Z_MSC_RDPS_SpecificHumidity_IsbL-0010_RLatLon0.09_PT057H.grib2 2026-04-29 08:56 394K
20260429T06Z_MSC_RDPS_SpecificHumidity_IsbL-0020_RLatLon0.09_PT057H.grib2 2026-04-29 08:56 383K
20260429T06Z_MSC_RDPS_SpecificHumidity_IsbL-0030_RLatLon0.09_PT057H.grib2 2026-04-29 08:56 365K
20260429T06Z_MSC_RDPS_SpecificHumidity_IsbL-0050_RLatLon0.09_PT057H.grib2 2026-04-29 08:56 447K
20260429T06Z_MSC_RDPS_SpecificHumidity_IsbL-0100_RLatLon0.09_PT057H.grib2 2026-04-29 08:56 418K
20260429T06Z_MSC_RDPS_SpecificHumidity_IsbL-0150_RLatLon0.09_PT057H.grib2 2026-04-29 08:56 442K
20260429T06Z_MSC_RDPS_SpecificHumidity_IsbL-0175_RLatLon0.09_PT057H.grib2 2026-04-29 08:56 421K
20260429T06Z_MSC_RDPS_SpecificHumidity_IsbL-0200_RLatLon0.09_PT057H.grib2 2026-04-29 08:56 440K
20260429T06Z_MSC_RDPS_SpecificHumidity_IsbL-0225_RLatLon0.09_PT057H.grib2 2026-04-29 08:56 444K
20260429T06Z_MSC_RDPS_SpecificHumidity_IsbL-0250_RLatLon0.09_PT057H.grib2 2026-04-29 08:56 547K
20260429T06Z_MSC_RDPS_SpecificHumidity_IsbL-0275_RLatLon0.09_PT057H.grib2 2026-04-29 08:56 463K
20260429T06Z_MSC_RDPS_SpecificHumidity_IsbL-0300_RLatLon0.09_PT057H.grib2 2026-04-29 08:56 563K
20260429T06Z_MSC_RDPS_SpecificHumidity_IsbL-0350_RLatLon0.09_PT057H.grib2 2026-04-29 08:56 530K
20260429T06Z_MSC_RDPS_SpecificHumidity_IsbL-0400_RLatLon0.09_PT057H.grib2 2026-04-29 08:56 512K
20260429T06Z_MSC_RDPS_SpecificHumidity_IsbL-0450_RLatLon0.09_PT057H.grib2 2026-04-29 08:56 569K
20260429T06Z_MSC_RDPS_SpecificHumidity_IsbL-0500_RLatLon0.09_PT057H.grib2 2026-04-29 08:56 503K
20260429T06Z_MSC_RDPS_SpecificHumidity_IsbL-0550_RLatLon0.09_PT057H.grib2 2026-04-29 08:56 575K
20260429T06Z_MSC_RDPS_SpecificHumidity_IsbL-0600_RLatLon0.09_PT057H.grib2 2026-04-29 08:56 627K
20260429T06Z_MSC_RDPS_SpecificHumidity_IsbL-0650_RLatLon0.09_PT057H.grib2 2026-04-29 08:56 542K
20260429T06Z_MSC_RDPS_SpecificHumidity_IsbL-0700_RLatLon0.09_PT057H.grib2 2026-04-29 08:56 580K
20260429T06Z_MSC_RDPS_SpecificHumidity_IsbL-0750_RLatLon0.09_PT057H.grib2 2026-04-29 08:56 634K
20260429T06Z_MSC_RDPS_SpecificHumidity_IsbL-0800_RLatLon0.09_PT057H.grib2 2026-04-29 08:56 711K
20260429T06Z_MSC_RDPS_SpecificHumidity_IsbL-0850_RLatLon0.09_PT057H.grib2 2026-04-29 08:56 799K
20260429T06Z_MSC_RDPS_SpecificHumidity_IsbL-0875_RLatLon0.09_PT057H.grib2 2026-04-29 08:56 827K
20260429T06Z_MSC_RDPS_SpecificHumidity_IsbL-0900_RLatLon0.09_PT057H.grib2 2026-04-29 08:56 841K
20260429T06Z_MSC_RDPS_SpecificHumidity_IsbL-0925_RLatLon0.09_PT057H.grib2 2026-04-29 08:56 845K
20260429T06Z_MSC_RDPS_SpecificHumidity_IsbL-0950_RLatLon0.09_PT057H.grib2 2026-04-29 08:56 850K
20260429T06Z_MSC_RDPS_SpecificHumidity_IsbL-0970_RLatLon0.09_PT057H.grib2 2026-04-29 08:56 700K
20260429T06Z_MSC_RDPS_SpecificHumidity_IsbL-0985_RLatLon0.09_PT057H.grib2 2026-04-29 08:56 693K
20260429T06Z_MSC_RDPS_SpecificHumidity_IsbL-1000_RLatLon0.09_PT057H.grib2 2026-04-29 08:56 684K
20260429T06Z_MSC_RDPS_SpecificHumidity_IsbL-1015_RLatLon0.09_PT057H.grib2 2026-04-29 08:56 673K
20260429T06Z_MSC_RDPS_SpecificHumidity_Sfc_RLatLon0.09_PT057H.grib2 2026-04-29 08:56 328K
20260429T06Z_MSC_RDPS_StormRelativeHelicity_EtaL-10000_RLatLon0.09_PT057H.grib2 2026-04-29 08:56 1.1M
20260429T06Z_MSC_RDPS_StormSeverityIndex_EtaL-10000_RLatLon0.09_PT057H.grib2 2026-04-29 08:56 1.2M
20260429T06Z_MSC_RDPS_Thickness_IsbL-0850to0700_RLatLon0.09_PT057H.grib2 2026-04-29 08:56 175K
20260429T06Z_MSC_RDPS_Thickness_IsbL-1000to0500_RLatLon0.09_PT057H.grib2 2026-04-29 08:56 198K
20260429T06Z_MSC_RDPS_Thickness_IsbL-1000to0850_RLatLon0.09_PT057H.grib2 2026-04-29 08:56 263K
20260429T06Z_MSC_RDPS_TotalCloudCover_Sfc_RLatLon0.09_PT057H.grib2 2026-04-29 08:56 647K
20260429T06Z_MSC_RDPS_TotalTotalsIndex_Sfc_RLatLon0.09_PT057H.grib2 2026-04-29 08:56 2.4M
20260429T06Z_MSC_RDPS_UVIndex-ClearSky_Sfc_RLatLon0.09_PT057H.grib2 2026-04-29 08:56 182K
20260429T06Z_MSC_RDPS_UVIndex_Sfc_RLatLon0.09_PT057H.grib2 2026-04-29 08:56 412K
20260429T06Z_MSC_RDPS_UpwardLongwaveRadiationFlux_NTAtm_RLatLon0.09_PT057H.grib2 2026-04-29 08:56 480K
20260429T06Z_MSC_RDPS_UpwardShortwaveRadiationFlux_NTAtm_RLatLon0.09_PT057H.grib2 2026-04-29 08:56 458K
20260429T06Z_MSC_RDPS_VerticalVelocity_IsbL-0250_RLatLon0.09_PT057H.grib2 2026-04-29 08:56 544K
20260429T06Z_MSC_RDPS_VerticalVelocity_IsbL-0500_RLatLon0.09_PT057H.grib2 2026-04-29 08:56 538K
20260429T06Z_MSC_RDPS_VerticalVelocity_IsbL-0700_RLatLon0.09_PT057H.grib2 2026-04-29 08:56 612K
20260429T06Z_MSC_RDPS_VerticalVelocity_IsbL-0850_RLatLon0.09_PT057H.grib2 2026-04-29 08:56 701K
20260429T06Z_MSC_RDPS_VerticalWindShear_EtaL-6500_RLatLon0.09_PT057H.grib2 2026-04-29 08:56 1.2M
20260429T06Z_MSC_RDPS_WindChill_Sfc_RLatLon0.09_PT057H.grib2 2026-04-29 08:56 1.2M
20260429T06Z_MSC_RDPS_WindDir_AGL-10m_RLatLon0.09_PT057H.grib2 2026-04-29 08:56 962K
20260429T06Z_MSC_RDPS_WindDir_AGL-120m_RLatLon0.09_PT057H.grib2 2026-04-29 08:56 606K
20260429T06Z_MSC_RDPS_WindDir_AGL-40m_RLatLon0.09_PT057H.grib2 2026-04-29 08:56 630K
20260429T06Z_MSC_RDPS_WindDir_AGL-80m_RLatLon0.09_PT057H.grib2 2026-04-29 08:56 616K
20260429T06Z_MSC_RDPS_WindDir_IsbL-0001_RLatLon0.09_PT057H.grib2 2026-04-29 08:56 308K
20260429T06Z_MSC_RDPS_WindDir_IsbL-0005_RLatLon0.09_PT057H.grib2 2026-04-29 08:56 379K
20260429T06Z_MSC_RDPS_WindDir_IsbL-0010_RLatLon0.09_PT057H.grib2 2026-04-29 08:56 377K
20260429T06Z_MSC_RDPS_WindDir_IsbL-0020_RLatLon0.09_PT057H.grib2 2026-04-29 08:56 419K
20260429T06Z_MSC_RDPS_WindDir_IsbL-0030_RLatLon0.09_PT057H.grib2 2026-04-29 08:56 419K
20260429T06Z_MSC_RDPS_WindDir_IsbL-0050_RLatLon0.09_PT057H.grib2 2026-04-29 08:56 419K
20260429T06Z_MSC_RDPS_WindDir_IsbL-0100_RLatLon0.09_PT057H.grib2 2026-04-29 08:56 419K
20260429T06Z_MSC_RDPS_WindDir_IsbL-0150_RLatLon0.09_PT057H.grib2 2026-04-29 08:56 421K
20260429T06Z_MSC_RDPS_WindDir_IsbL-0175_RLatLon0.09_PT057H.grib2 2026-04-29 08:56 439K
20260429T06Z_MSC_RDPS_WindDir_IsbL-0200_RLatLon0.09_PT057H.grib2 2026-04-29 08:56 451K
20260429T06Z_MSC_RDPS_WindDir_IsbL-0225_RLatLon0.09_PT057H.grib2 2026-04-29 08:56 451K
20260429T06Z_MSC_RDPS_WindDir_IsbL-0250_RLatLon0.09_PT057H.grib2 2026-04-29 08:56 451K
20260429T06Z_MSC_RDPS_WindDir_IsbL-0275_RLatLon0.09_PT057H.grib2 2026-04-29 08:56 472K
20260429T06Z_MSC_RDPS_WindDir_IsbL-0300_RLatLon0.09_PT057H.grib2 2026-04-29 08:56 473K
20260429T06Z_MSC_RDPS_WindDir_IsbL-0350_RLatLon0.09_PT057H.grib2 2026-04-29 08:56 490K
20260429T06Z_MSC_RDPS_WindDir_IsbL-0400_RLatLon0.09_PT057H.grib2 2026-04-29 08:56 504K
20260429T06Z_MSC_RDPS_WindDir_IsbL-0450_RLatLon0.09_PT057H.grib2 2026-04-29 08:56 517K
20260429T06Z_MSC_RDPS_WindDir_IsbL-0500_RLatLon0.09_PT057H.grib2 2026-04-29 08:56 531K
20260429T06Z_MSC_RDPS_WindDir_IsbL-0550_RLatLon0.09_PT057H.grib2 2026-04-29 08:56 548K
20260429T06Z_MSC_RDPS_WindDir_IsbL-0600_RLatLon0.09_PT057H.grib2 2026-04-29 08:56 574K
20260429T06Z_MSC_RDPS_WindDir_IsbL-0650_RLatLon0.09_PT057H.grib2 2026-04-29 08:56 614K
20260429T06Z_MSC_RDPS_WindDir_IsbL-0700_RLatLon0.09_PT057H.grib2 2026-04-29 08:56 657K
20260429T06Z_MSC_RDPS_WindDir_IsbL-0750_RLatLon0.09_PT057H.grib2 2026-04-29 08:56 697K
20260429T06Z_MSC_RDPS_WindDir_IsbL-0800_RLatLon0.09_PT057H.grib2 2026-04-29 08:56 762K
20260429T06Z_MSC_RDPS_WindDir_IsbL-0850_RLatLon0.09_PT057H.grib2 2026-04-29 08:56 840K
20260429T06Z_MSC_RDPS_WindDir_IsbL-0875_RLatLon0.09_PT057H.grib2 2026-04-29 08:56 874K
20260429T06Z_MSC_RDPS_WindDir_IsbL-0900_RLatLon0.09_PT057H.grib2 2026-04-29 08:56 891K
20260429T06Z_MSC_RDPS_WindDir_IsbL-0925_RLatLon0.09_PT057H.grib2 2026-04-29 08:56 901K
20260429T06Z_MSC_RDPS_WindDir_IsbL-0950_RLatLon0.09_PT057H.grib2 2026-04-29 08:56 904K
20260429T06Z_MSC_RDPS_WindDir_IsbL-0970_RLatLon0.09_PT057H.grib2 2026-04-29 08:56 913K
20260429T06Z_MSC_RDPS_WindDir_IsbL-0985_RLatLon0.09_PT057H.grib2 2026-04-29 08:56 923K
20260429T06Z_MSC_RDPS_WindDir_IsbL-1000_RLatLon0.09_PT057H.grib2 2026-04-29 08:56 937K
20260429T06Z_MSC_RDPS_WindDir_IsbL-1015_RLatLon0.09_PT057H.grib2 2026-04-29 08:56 953K
20260429T06Z_MSC_RDPS_WindGust-Max_AGL-10m_RLatLon0.09_PT057H.grib2 2026-04-29 08:56 1.0M
20260429T06Z_MSC_RDPS_WindGust-Min_AGL-10m_RLatLon0.09_PT057H.grib2 2026-04-29 08:56 1.0M
20260429T06Z_MSC_RDPS_WindGust_AGL-10m_RLatLon0.09_PT057H.grib2 2026-04-29 08:56 1.0M
20260429T06Z_MSC_RDPS_WindSpeed_AGL-10m_RLatLon0.09_PT057H.grib2 2026-04-29 08:56 837K
20260429T06Z_MSC_RDPS_WindSpeed_AGL-120m_RLatLon0.09_PT057H.grib2 2026-04-29 08:56 538K
20260429T06Z_MSC_RDPS_WindSpeed_AGL-40m_RLatLon0.09_PT057H.grib2 2026-04-29 08:56 667K
20260429T06Z_MSC_RDPS_WindSpeed_AGL-80m_RLatLon0.09_PT057H.grib2 2026-04-29 08:56 537K
20260429T06Z_MSC_RDPS_WindSpeed_IsbL-0001_RLatLon0.09_PT057H.grib2 2026-04-29 08:56 335K
20260429T06Z_MSC_RDPS_WindSpeed_IsbL-0005_RLatLon0.09_PT057H.grib2 2026-04-29 08:56 382K
20260429T06Z_MSC_RDPS_WindSpeed_IsbL-0010_RLatLon0.09_PT057H.grib2 2026-04-29 08:56 304K
20260429T06Z_MSC_RDPS_WindSpeed_IsbL-0020_RLatLon0.09_PT057H.grib2 2026-04-29 08:56 325K
20260429T06Z_MSC_RDPS_WindSpeed_IsbL-0030_RLatLon0.09_PT057H.grib2 2026-04-29 08:56 419K
20260429T06Z_MSC_RDPS_WindSpeed_IsbL-0050_RLatLon0.09_PT057H.grib2 2026-04-29 08:56 349K
20260429T06Z_MSC_RDPS_WindSpeed_IsbL-0100_RLatLon0.09_PT057H.grib2 2026-04-29 08:56 472K
20260429T06Z_MSC_RDPS_WindSpeed_IsbL-0150_RLatLon0.09_PT057H.grib2 2026-04-29 08:56 375K
20260429T06Z_MSC_RDPS_WindSpeed_IsbL-0175_RLatLon0.09_PT057H.grib2 2026-04-29 08:56 423K
20260429T06Z_MSC_RDPS_WindSpeed_IsbL-0200_RLatLon0.09_PT057H.grib2 2026-04-29 08:56 439K
20260429T06Z_MSC_RDPS_WindSpeed_IsbL-0225_RLatLon0.09_PT057H.grib2 2026-04-29 08:56 446K
20260429T06Z_MSC_RDPS_WindSpeed_IsbL-0250_RLatLon0.09_PT057H.grib2 2026-04-29 08:56 448K
20260429T06Z_MSC_RDPS_WindSpeed_IsbL-0275_RLatLon0.09_PT057H.grib2 2026-04-29 08:56 464K
20260429T06Z_MSC_RDPS_WindSpeed_IsbL-0300_RLatLon0.09_PT057H.grib2 2026-04-29 08:56 461K
20260429T06Z_MSC_RDPS_WindSpeed_IsbL-0350_RLatLon0.09_PT057H.grib2 2026-04-29 08:56 470K
20260429T06Z_MSC_RDPS_WindSpeed_IsbL-0400_RLatLon0.09_PT057H.grib2 2026-04-29 08:56 473K
20260429T06Z_MSC_RDPS_WindSpeed_IsbL-0450_RLatLon0.09_PT057H.grib2 2026-04-29 08:56 457K
20260429T06Z_MSC_RDPS_WindSpeed_IsbL-0500_RLatLon0.09_PT057H.grib2 2026-04-29 08:56 457K
20260429T06Z_MSC_RDPS_WindSpeed_IsbL-0550_RLatLon0.09_PT057H.grib2 2026-04-29 08:56 456K
20260429T06Z_MSC_RDPS_WindSpeed_IsbL-0600_RLatLon0.09_PT057H.grib2 2026-04-29 08:56 464K
20260429T06Z_MSC_RDPS_WindSpeed_IsbL-0650_RLatLon0.09_PT057H.grib2 2026-04-29 08:56 604K
20260429T06Z_MSC_RDPS_WindSpeed_IsbL-0700_RLatLon0.09_PT057H.grib2 2026-04-29 08:56 628K
20260429T06Z_MSC_RDPS_WindSpeed_IsbL-0750_RLatLon0.09_PT057H.grib2 2026-04-29 08:56 699K
20260429T06Z_MSC_RDPS_WindSpeed_IsbL-0800_RLatLon0.09_PT057H.grib2 2026-04-29 08:56 747K
20260429T06Z_MSC_RDPS_WindSpeed_IsbL-0850_RLatLon0.09_PT057H.grib2 2026-04-29 08:56 808K
20260429T06Z_MSC_RDPS_WindSpeed_IsbL-0875_RLatLon0.09_PT057H.grib2 2026-04-29 08:56 831K
20260429T06Z_MSC_RDPS_WindSpeed_IsbL-0900_RLatLon0.09_PT057H.grib2 2026-04-29 08:56 847K
20260429T06Z_MSC_RDPS_WindSpeed_IsbL-0925_RLatLon0.09_PT057H.grib2 2026-04-29 08:56 860K
20260429T06Z_MSC_RDPS_WindSpeed_IsbL-0950_RLatLon0.09_PT057H.grib2 2026-04-29 08:56 857K
20260429T06Z_MSC_RDPS_WindSpeed_IsbL-0970_RLatLon0.09_PT057H.grib2 2026-04-29 08:56 856K
20260429T06Z_MSC_RDPS_WindSpeed_IsbL-0985_RLatLon0.09_PT057H.grib2 2026-04-29 08:56 851K
20260429T06Z_MSC_RDPS_WindSpeed_IsbL-1000_RLatLon0.09_PT057H.grib2 2026-04-29 08:56 846K
20260429T06Z_MSC_RDPS_WindSpeed_IsbL-1015_RLatLon0.09_PT057H.grib2 2026-04-29 08:56 837K
20260429T06Z_MSC_RDPS_WindU_AGL-10m_RLatLon0.09_PT057H.grib2 2026-04-29 08:56 431K
20260429T06Z_MSC_RDPS_WindU_AGL-120m_RLatLon0.09_PT057H.grib2 2026-04-29 08:56 534K
20260429T06Z_MSC_RDPS_WindU_AGL-40m_RLatLon0.09_PT057H.grib2 2026-04-29 08:56 535K
20260429T06Z_MSC_RDPS_WindU_AGL-80m_RLatLon0.09_PT057H.grib2 2026-04-29 08:56 534K
20260429T06Z_MSC_RDPS_WindU_IsbL-0001_RLatLon0.09_PT057H.grib2 2026-04-29 08:56 245K
20260429T06Z_MSC_RDPS_WindU_IsbL-0005_RLatLon0.09_PT057H.grib2 2026-04-29 08:56 286K
20260429T06Z_MSC_RDPS_WindU_IsbL-0010_RLatLon0.09_PT057H.grib2 2026-04-29 08:56 296K
20260429T06Z_MSC_RDPS_WindU_IsbL-0020_RLatLon0.09_PT057H.grib2 2026-04-29 08:56 315K
20260429T06Z_MSC_RDPS_WindU_IsbL-0030_RLatLon0.09_PT057H.grib2 2026-04-29 08:56 314K
20260429T06Z_MSC_RDPS_WindU_IsbL-0050_RLatLon0.09_PT057H.grib2 2026-04-29 08:56 343K
20260429T06Z_MSC_RDPS_WindU_IsbL-0100_RLatLon0.09_PT057H.grib2 2026-04-29 08:56 427K
20260429T06Z_MSC_RDPS_WindU_IsbL-0150_RLatLon0.09_PT057H.grib2 2026-04-29 08:56 391K
20260429T06Z_MSC_RDPS_WindU_IsbL-0175_RLatLon0.09_PT057H.grib2 2026-04-29 08:56 415K
20260429T06Z_MSC_RDPS_WindU_IsbL-0200_RLatLon0.09_PT057H.grib2 2026-04-29 08:56 334K
20260429T06Z_MSC_RDPS_WindU_IsbL-0225_RLatLon0.09_PT057H.grib2 2026-04-29 08:56 339K
20260429T06Z_MSC_RDPS_WindU_IsbL-0250_RLatLon0.09_PT057H.grib2 2026-04-29 08:56 339K
20260429T06Z_MSC_RDPS_WindU_IsbL-0275_RLatLon0.09_PT057H.grib2 2026-04-29 08:56 352K
20260429T06Z_MSC_RDPS_WindU_IsbL-0300_RLatLon0.09_PT057H.grib2 2026-04-29 08:56 349K
20260429T06Z_MSC_RDPS_WindU_IsbL-0350_RLatLon0.09_PT057H.grib2 2026-04-29 08:56 356K
20260429T06Z_MSC_RDPS_WindU_IsbL-0400_RLatLon0.09_PT057H.grib2 2026-04-29 08:56 358K
20260429T06Z_MSC_RDPS_WindU_IsbL-0450_RLatLon0.09_PT057H.grib2 2026-04-29 08:56 463K
20260429T06Z_MSC_RDPS_WindU_IsbL-0500_RLatLon0.09_PT057H.grib2 2026-04-29 08:56 463K
20260429T06Z_MSC_RDPS_WindU_IsbL-0550_RLatLon0.09_PT057H.grib2 2026-04-29 08:56 464K
20260429T06Z_MSC_RDPS_WindU_IsbL-0600_RLatLon0.09_PT057H.grib2 2026-04-29 08:56 473K
20260429T06Z_MSC_RDPS_WindU_IsbL-0650_RLatLon0.09_PT057H.grib2 2026-04-29 08:56 491K
20260429T06Z_MSC_RDPS_WindU_IsbL-0700_RLatLon0.09_PT057H.grib2 2026-04-29 08:56 497K
20260429T06Z_MSC_RDPS_WindU_IsbL-0750_RLatLon0.09_PT057H.grib2 2026-04-29 08:56 521K
20260429T06Z_MSC_RDPS_WindU_IsbL-0800_RLatLon0.09_PT057H.grib2 2026-04-29 08:56 563K
20260429T06Z_MSC_RDPS_WindU_IsbL-0850_RLatLon0.09_PT057H.grib2 2026-04-29 08:56 616K
20260429T06Z_MSC_RDPS_WindU_IsbL-0875_RLatLon0.09_PT057H.grib2 2026-04-29 08:56 635K
20260429T06Z_MSC_RDPS_WindU_IsbL-0900_RLatLon0.09_PT057H.grib2 2026-04-29 08:56 647K
20260429T06Z_MSC_RDPS_WindU_IsbL-0925_RLatLon0.09_PT057H.grib2 2026-04-29 08:56 655K
20260429T06Z_MSC_RDPS_WindU_IsbL-0950_RLatLon0.09_PT057H.grib2 2026-04-29 08:56 653K
20260429T06Z_MSC_RDPS_WindU_IsbL-0970_RLatLon0.09_PT057H.grib2 2026-04-29 08:56 650K
20260429T06Z_MSC_RDPS_WindU_IsbL-0985_RLatLon0.09_PT057H.grib2 2026-04-29 08:56 788K
20260429T06Z_MSC_RDPS_WindU_IsbL-1000_RLatLon0.09_PT057H.grib2 2026-04-29 08:56 786K
20260429T06Z_MSC_RDPS_WindU_IsbL-1015_RLatLon0.09_PT057H.grib2 2026-04-29 08:56 825K
20260429T06Z_MSC_RDPS_WindV_AGL-10m_RLatLon0.09_PT057H.grib2 2026-04-29 08:56 430K
20260429T06Z_MSC_RDPS_WindV_AGL-120m_RLatLon0.09_PT057H.grib2 2026-04-29 08:56 532K
20260429T06Z_MSC_RDPS_WindV_AGL-40m_RLatLon0.09_PT057H.grib2 2026-04-29 08:56 532K
20260429T06Z_MSC_RDPS_WindV_AGL-80m_RLatLon0.09_PT057H.grib2 2026-04-29 08:56 532K
20260429T06Z_MSC_RDPS_WindV_IsbL-0001_RLatLon0.09_PT057H.grib2 2026-04-29 08:56 246K
20260429T06Z_MSC_RDPS_WindV_IsbL-0005_RLatLon0.09_PT057H.grib2 2026-04-29 08:56 286K
20260429T06Z_MSC_RDPS_WindV_IsbL-0010_RLatLon0.09_PT057H.grib2 2026-04-29 08:56 299K
20260429T06Z_MSC_RDPS_WindV_IsbL-0020_RLatLon0.09_PT057H.grib2 2026-04-29 08:56 318K
20260429T06Z_MSC_RDPS_WindV_IsbL-0030_RLatLon0.09_PT057H.grib2 2026-04-29 08:56 316K
20260429T06Z_MSC_RDPS_WindV_IsbL-0050_RLatLon0.09_PT057H.grib2 2026-04-29 08:56 342K
20260429T06Z_MSC_RDPS_WindV_IsbL-0100_RLatLon0.09_PT057H.grib2 2026-04-29 08:56 424K
20260429T06Z_MSC_RDPS_WindV_IsbL-0150_RLatLon0.09_PT057H.grib2 2026-04-29 08:56 389K
20260429T06Z_MSC_RDPS_WindV_IsbL-0175_RLatLon0.09_PT057H.grib2 2026-04-29 08:56 413K
20260429T06Z_MSC_RDPS_WindV_IsbL-0200_RLatLon0.09_PT057H.grib2 2026-04-29 08:56 333K
20260429T06Z_MSC_RDPS_WindV_IsbL-0225_RLatLon0.09_PT057H.grib2 2026-04-29 08:56 336K
20260429T06Z_MSC_RDPS_WindV_IsbL-0250_RLatLon0.09_PT057H.grib2 2026-04-29 08:56 336K
20260429T06Z_MSC_RDPS_WindV_IsbL-0275_RLatLon0.09_PT057H.grib2 2026-04-29 08:56 349K
20260429T06Z_MSC_RDPS_WindV_IsbL-0300_RLatLon0.09_PT057H.grib2 2026-04-29 08:56 346K
20260429T06Z_MSC_RDPS_WindV_IsbL-0350_RLatLon0.09_PT057H.grib2 2026-04-29 08:56 455K
20260429T06Z_MSC_RDPS_WindV_IsbL-0400_RLatLon0.09_PT057H.grib2 2026-04-29 08:56 458K
20260429T06Z_MSC_RDPS_WindV_IsbL-0450_RLatLon0.09_PT057H.grib2 2026-04-29 08:56 459K
20260429T06Z_MSC_RDPS_WindV_IsbL-0500_RLatLon0.09_PT057H.grib2 2026-04-29 08:56 460K
20260429T06Z_MSC_RDPS_WindV_IsbL-0550_RLatLon0.09_PT057H.grib2 2026-04-29 08:56 460K
20260429T06Z_MSC_RDPS_WindV_IsbL-0600_RLatLon0.09_PT057H.grib2 2026-04-29 08:56 452K
20260429T06Z_MSC_RDPS_WindV_IsbL-0650_RLatLon0.09_PT057H.grib2 2026-04-29 08:56 472K
20260429T06Z_MSC_RDPS_WindV_IsbL-0700_RLatLon0.09_PT057H.grib2 2026-04-29 08:56 493K
20260429T06Z_MSC_RDPS_WindV_IsbL-0750_RLatLon0.09_PT057H.grib2 2026-04-29 08:56 515K
20260429T06Z_MSC_RDPS_WindV_IsbL-0800_RLatLon0.09_PT057H.grib2 2026-04-29 08:56 557K
20260429T06Z_MSC_RDPS_WindV_IsbL-0850_RLatLon0.09_PT057H.grib2 2026-04-29 08:56 613K
20260429T06Z_MSC_RDPS_WindV_IsbL-0875_RLatLon0.09_PT057H.grib2 2026-04-29 08:56 634K
20260429T06Z_MSC_RDPS_WindV_IsbL-0900_RLatLon0.09_PT057H.grib2 2026-04-29 08:56 647K
20260429T06Z_MSC_RDPS_WindV_IsbL-0925_RLatLon0.09_PT057H.grib2 2026-04-29 08:56 794K
20260429T06Z_MSC_RDPS_WindV_IsbL-0950_RLatLon0.09_PT057H.grib2 2026-04-29 08:56 792K
20260429T06Z_MSC_RDPS_WindV_IsbL-0970_RLatLon0.09_PT057H.grib2 2026-04-29 08:56 790K
20260429T06Z_MSC_RDPS_WindV_IsbL-0985_RLatLon0.09_PT057H.grib2 2026-04-29 08:56 786K
20260429T06Z_MSC_RDPS_WindV_IsbL-1000_RLatLon0.09_PT057H.grib2 2026-04-29 08:56 781K
20260429T06Z_MSC_RDPS_WindV_IsbL-1015_RLatLon0.09_PT057H.grib2 2026-04-29 08:56 822K